Location: Dunedin
(45.8670°S, 170.5000°E)
Time: 04:23:32
(UTC+13:00)

Cosmos 1242 Rocket - Pass Details

Date: 24 January 2019
Orbit: 449 x 490 km, 81.2° (Epoch: 18 February)

Event Time Altitude Azimuth Distance (km) Brightness Sun altitude
Rises 22:52:00 0° 196° (SSW) 2,610 7.5 -13.4°
Reaches altitude 10° 22:54:10 10° 200° (SSW) 1,721 6.5 -13.7°
Maximum altitude 22:57:52 54° 277° (W) 619 3.3 -14.1°
Enters shadow 23:00:50 15° 351° (N) 1,432 4.6 -14.5°
